Find Starlink 30529

NORAD ID: 58047 Int'l Des: 2023-156 Owner: SPXS Country: US Constellation: starlink operational
LEOCIRCULAR

当前视图

正在加载3D地球...

About Starlink 30529

Starlink 30529 (NORAD 58047) is a starlink constellation satellite (v2 mini) launched Oct 9, 2023 by SPXS of US. It operates in LEO, CIRCULAR orbit with a mass of 730.00 kg.

关于 Starlink 30529

正在加载描述...

即将过境

Passes for default location (London). Set your location on the main map for personalized predictions.

高度历史

Loading altitude history...

两行轨道根数

1 58047U 23156V 26173.35802584 -.00000083 00000-0 93152-5 0 9992
2 58047 53.1615 42.3026 0001421 91.4141 268.7023 15.30190171151005
Epoch: Jun 22, 2026 • Age: 38 hours

当前状态

高度 478.2 km
速度 7.63 km/s
星下点 40.28°N, 174.68°W
发射日期 Oct 9, 2023
运行时间 2.7 years
类型 internet

技术详情

分类 Payload
质量 730.00 kg
干质量 700.00 kg
总质量 730.00 kg
长度 0.30 m
直径 4.10 m
跨度 29.00 m
形状 Box + pan
制造商 SPXS
平台类型 Starlink V2M
阶段状态 In Orbit
所有者/国家 SPXS/US

Most Searched